TimeMST,TemperatureF,Dew PointF,Humidity,Sea Level PressureIn,VisibilityMPH,Wind Direction,Wind SpeedMPH,Gust SpeedMPH,PrecipitationIn,Events,Conditions,WindDirDegrees,DateUTC
12:55 AM,10.9,6.1,81,30.31,10.0,Calm,Calm,-,N/A,,Clear,0,2013-01-24 07:55:00
1:55 AM,10.0,3.9,76,30.27,10.0,ENE,3.5,-,N/A,,Mostly Cloudy,60,2013-01-24 08:55:00
2:55 AM,10.9,6.1,81,30.26,10.0,NW,3.5,-,N/A,,Partly Cloudy,310,2013-01-24 09:55:00
3:55 AM,12.9,7.0,77,30.24,10.0,SSW,4.6,-,N/A,,Partly Cloudy,200,2013-01-24 10:55:00
4:55 AM,12.9,8.1,81,30.24,7.0,Calm,Calm,-,N/A,,Scattered Clouds,0,2013-01-24 11:55:00
5:55 AM,14.0,8.1,77,30.25,10.0,Calm,Calm,-,N/A,,Scattered Clouds,0,2013-01-24 12:55:00
6:55 AM,16.0,10.0,77,30.27,10.0,Calm,Calm,-,N/A,,Mostly Cloudy,0,2013-01-24 13:55:00
7:55 AM,16.0,10.0,77,30.30,7.0,Calm,Calm,-,N/A,,Overcast,0,2013-01-24 14:55:00
8:55 AM,18.0,10.9,74,30.31,7.0,Calm,Calm,-,N/A,,Overcast,0,2013-01-24 15:55:00
9:55 AM,19.0,12.0,74,30.31,8.0,Calm,Calm,-,N/A,,Overcast,0,2013-01-24 16:55:00
10:55 AM,21.0,12.0,68,30.32,10.0,Calm,Calm,-,N/A,,Mostly Cloudy,0,2013-01-24 17:55:00
11:55 AM,27.0,14.0,58,30.29,10.0,Calm,Calm,-,N/A,,Mostly Cloudy,0,2013-01-24 18:55:00
12:55 PM,28.0,14.0,56,30.27,10.0,East,3.5,-,N/A,,Clear,100,2013-01-24 19:55:00
1:55 PM,30.9,16.0,54,30.25,10.0,Calm,Calm,-,N/A,,Clear,0,2013-01-24 20:55:00
2:55 PM,32.0,18.0,56,30.23,10.0,Calm,Calm,-,N/A,,Clear,0,2013-01-24 21:55:00
3:55 PM,34.0,19.0,54,30.22,10.0,Calm,Calm,-,N/A,,Clear,0,2013-01-24 22:55:00
4:55 PM,28.9,19.0,67,30.26,10.0,Calm,Calm,-,N/A,,Clear,0,2013-01-24 23:55:00
5:55 PM,18.0,14.0,84,30.32,9.0,SSW,3.5,-,N/A,,Clear,210,2013-01-25 00:55:00
6:55 PM,19.9,14.0,78,30.32,10.0,Calm,Calm,-,N/A,,Clear,0,2013-01-25 01:55:00
7:55 PM,18.0,12.9,81,30.35,10.0,Calm,Calm,-,N/A,,Clear,0,2013-01-25 02:55:00
8:55 PM,15.1,10.9,84,30.36,10.0,Calm,Calm,-,N/A,,Clear,0,2013-01-25 03:55:00
9:55 PM,15.1,10.9,84,30.38,10.0,Calm,Calm,-,N/A,,Clear,0,2013-01-25 04:55:00
10:55 PM,10.0,7.0,87,30.39,10.0,Calm,Calm,-,N/A,,Clear,0,2013-01-25 05:55:00
11:55 PM,10.9,9.0,92,30.38,8.0,Calm,Calm,-,N/A,,Clear,0,2013-01-25 06:55:00